YAOGAN-31 M (47857 NORAD) Tracking and Keplerian Element Data

This shows tracking and keplerian element data for the satellite.

Feedback or suggestion? Click here.




ElementValue
Catalog47857
NameYAOGAN-31 M
Epoch Orbit1354
Epoch Day172.79755378
Epoch Year2021
RAAN255.0813
Inclination63.4101
Eccentricity0.0013707
Argument of Perigee325.1099
Mean Anonmoly34.9027
Mean Motion13.45209217
Decay Rate-6.8E-07
L11 47857U 21020D 21172.79755378 -.00000068 00000-0 37138-4 0 9991
L22 47857 63.4101 255.0813 0013707 325.1099 34.9027 13.45209217 13541

Live tracking and technical data element details for YAOGAN-31 M (NORAD 47857). YAOGAN-31 M can be tracked NOW for your location showing map with azimuth and elevation plus other details from your city location.

Track the satellite on the map from your city or location and see movement details for azimuth, elevation, latitude, longitude, range, height, and movement on the map or in text.







IsCatalogInMostPopularTable: catalog: 47857, numindb: 42
Update: records affected: 1



GetName: 47857 YAOGAN-31 M

Hit Count: updated at: Thu, 24 Jun 2021 03:26:27 GMT